INTELSAT 602

operational
NORAD ID: 20315 Int'l Des: 1989-087 Owner: INTEL Country: I-INT
HEOCIRCULAR

INTELSAT 602について

説明を読み込み中...

リアルタイム位置

3D地球を読み込み中...

次回通過

高度履歴

Altitude vs Time

uPlot chart will show altitude changes over time

軌道要素

1 20315U 89087A 26061.46774270 .00000025 00000-0 00000-0 0 9992
2 20315 14.2620 8.3215 0006050 238.9771 307.3328 0.99005579130267
Epoch: Mar 2, 2026 • Age: 32 hours

現在のステータス

高度 36147.4 km
速度 3.06 km/s
衛星直下点 8.81°N, 137.22°W
打ち上げ日 Oct 27, 1989
運用期間 36.3 years
タイプ communications

技術仕様

分類 Payload
質量 4286.00 kg
乾燥質量 1906.00 kg
総質量 4286.00 kg
長さ 11.80 m
直径 3.60 m
スパン 11.80 m
形状 Cyl
製造者 HSES
バスタイプ HS-389
フェーズステータス Renamed
所有者/国 INTEL/I-INT

大規模コンステレーション

Loading constellations...